Location: Bonningues
(50.7927°N, 2.0150°E)
Time: 17:40:24
(UTC+00:00)

Cosmos 1954 Rocket - Pass Details

Date: 08 August 2020
Orbit: 753 x 781 km, 74.1° (Epoch: 25 September)

Event Time Altitude Azimuth Distance (km) Brightness Sun altitude
Exits shadow 21:46:56 - 209° (SSW) 2,826 6.7 -17.5°
Reaches altitude 10° 21:48:13 10° 211° (SSW) 2,330 6.2 -17.6°
Maximum altitude 21:53:31 73° 296° (WNW) 820 4.2 -18.1°
Drops below altitude 10° 21:58:52 10° 22° (NNE) 2,345 7.0 -18.5°
Sets 22:01:16 0° 24° (NNE) 3,276 7.8 -18.7°
